ENKBENVA

Guest
Details From ENKB - Kvernberget
To ENVA - Vaernes
Flight Number -
Tags Generated
Created
Modified
Stats Distance 87 nm / 161 km
Max Altitude 0 ft / 0 m
Waypoints 2
Social Downloads 1
Likes 0
Share VATSIM

Download

Looking for another format? Having issues loading an existing format? Contact us
Advertisement - Login to hide

Notes

Generated

Route

ENKB ENVA

ID Type Via Altitude Latitude Longitude Leg Dist Tot Dist Heading (true) Name
O ENKB APT - 0 ft / 0 m 63.10917˚ 7.80675˚ - 0 nm - -
O ENVA APT - 0 ft / 0 m 63.46455˚ 10.92316˚ 86 nm 86 nm 74° / 77° Vaernes

Altitude Profile

Advertisement - Login to hide

ENKB

Details ICAO ENKB (KSU)
Name KVERNBERGET
Region Norway
Timezone Europe/Oslo (UTC+2.0)
Stats Elevation 204 ft / 62 m (AMSL)
Location 63.111872° 7.824532°
Runways 1
Magnetic Variation 2.068° E

METAR

ENKB 212250Z AUTO 32004KT 9999 NCD 12/06 Q1022 RMK WIND 745FT 36006KT

Decode

TAF

Not found

Departure Runways

ID Width Length Bearing (true) Bearing (mag) Surface Threshold Offset Overrun Length
07 148 ft / 45 m 6,192 ft / 1,887 m 71.39° 69.32° Asphalt 197 ft / 60 m 0 ft / 0 m
25 148 ft / 45 m 6,192 ft / 1,887 m 251.42° 249.35° Asphalt 263 ft / 80 m 0 ft / 0 m

ENVA

Details ICAO ENVA (TRD)
Name Vaernes
Region Norway
Timezone Europe/Oslo (UTC+2.0)
Stats Elevation 56 ft / 17 m (AMSL)
Location 63.457605° 10.917980°
Runways 1
Magnetic Variation 3.578° E

METAR

ENVA 212250Z 15004KT CAVOK 12/08 Q1022 RMK WIND 670FT 10005KT

Decode

TAF

TAF ENVA 211700Z 2118/2218 23010KT CAVOK BECMG 2118/2120 VRB03KT BECMG 2208/2210 27012KT

Decode

Destination Runways

ID Width Length Bearing (true) Bearing (mag) Surface Threshold Offset Overrun Length
09 148 ft / 45 m 9,356 ft / 2,852 m 90.21° 86.63° Asphalt 984 ft / 300 m 0 ft / 0 m
27 148 ft / 45 m 9,356 ft / 2,852 m 270.26° 266.68° Asphalt 689 ft / 210 m 0 ft / 0 m

Approach Navaids

Runway Type Ident Frequency Range Bearing (true) Bearing (mag) Slope Elevation
09 Localiser TO 110.30 MHz 18 nm / 33 km 90.26° 86.68° - 31 ft / 9 m (AMSL)
09 Glidescope TO 110.30 MHz 10 nm / 19 km 90.23° 86.65° 3.00° 56 ft / 17 m (AMSL)
09 DME TO 110.30 MHz 18 nm / 33 km - - - 31 ft / 9 m (AMSL)
27 Localiser TD 109.90 MHz 18 nm / 33 km 270.20° 266.62° - 56 ft / 17 m (AMSL)
27 Glidescope TD 109.90 MHz 10 nm / 19 km 270.23° 266.65° 3.40° 56 ft / 17 m (AMSL)
27 DME TD 109.90 MHz 18 nm / 33 km - - - 78 ft / 24 m (AMSL)

Popular Alternatives